Temp
-12 -12 -11 -11 -10 -11 -11 -11 -10 -10 -11 -11 -11 -10 -10 -10 -10 -10 -10 -9 -9 -9 -9 -9 -9 -9 -9 -9 -9 -9 -9 -8 -8 -8 -8 -8 -7 -7 -7 -7 -8 -8 -8
-11 -11 -11 -11 -11 -11 -11 -10 -11 -10 -10 -11 -11 -11 -11 -10 -10 -10 -10 -10 -10 -9 -9 -9 -9 -9 -9 -9 -9 -9 -9 -9 -8 -8 -8 -8 -8 -8 -8 -8 -8 -8 -9
-11 -11 -11 -11 -11 -11 -11 -11 -11 -11 -11 -11 -11 -10 -11 -11 -11 -10 -10 -10 -10 -10 -9 -9 -9 -9 -9 -10 -9 -9 -9 -9 -9 -8 -8 -8 -8 -8 -8 -8 -8 -9 -9
-11 -11 -11 -11 -11 -11 -11 -11 -11 -11 -11 -11 -11 -11 -11 -11 -11 -11 -11 -11 -11 -10 -10 -10 -10 -9 -9 -9 -9 -9 -9 -9 -9 -9 -9 -8 -8 -8 -8 -8 -8 -9 -9
-11 -11 -11 -11 -11 -11 -11 -11 -11 -11 -11 -11 -11 -11 -11 -11 -11 -11 -11 -11 -11 -10 -10 -10 -10 -10 -9 -9 -10 -10 -10 -10 -9 -9 -9 -9 -8 -8 -9 -9 -9 -9 -9
-11 -11 -11 -11 -11 -11 -11 -11 -11 -11 -11 -11 -11 -11 -11 -11 -11 -11 -11 -11 -11 -11 -10 -10 -10 -10 -10 -10 -10 -10 -10 -10 -10 -9 -10 -9 -9 -9 -9 -9 -9 -9 -9
-11 -11 -11 -11 -11 -11 -11 -11 -10 -11 -11 -11 -11 -11 -11 -11 -11 -11 -11 -11 -11 -11 -11 -11 -10 -10 -10 -10 -10 -10 -10 -10 -10 -10 -10 -10 -10 -9 -9 -9 -9 -9 -9
-10 -10 -10 -11 -11 -11 -11 -11 -11 -11 -11 -11 -11 -11 -11 -11 -11 -11 -11 -11 -11 -11 -12 -11 -11 -11 -10 -10 -10 -10 -10 -10 -10 -10 -10 -10 -10 -10 -9 -9 -9 -9 -9
-10 -10 -10 -11 -11 -11 -11 -11 -11 -11 -11 -11 -11 -11 -11 -11 -11 -12 -11 -11 -11 -11 -11 -11 -11 -11 -11 -11 -11 -10 -10 -10 -10 -10 -10 -10 -10 -10 -10 -9 -9 -9 -9
-10 -11 -11 -11 -11 -11 -11 -11 -11 -11 -11 -11 -11 -11 -11 -11 -11 -11 -12 -11 -11 -11 -11 -11 -11 -11 -11 -11 -11 -11 -10 -10 -10 -10 -10 -10 -10 -10 -10 -10 -9 -9 -9
-10 -10 -10 -10 -10 -10 -10 -11 -11 -11 -11 -12 -12 -12 -11 -11 -11 -11 -11 -11 -11 -11 -12 -11 -11 -11 -11 -11 -11 -11 -10 -10 -10 -10 -10 -10 -10 -10 -10 -10 -10 -9 -10
-11 -11 -11 -11 -11 -11 -11 -11 -11 -11 -11 -12 -11 -12 -12 -12 -12 -11 -11 -11 -11 -11 -11 -12 -12 -11 -11 -12 -12 -11 -11 -10 -10 -10 -10 -10 -10 -10 -10 -10 -10 -10 -10
-11 -11 -11 -11 -11 -12 -11 -11 -11 -11 -11 -11 -12 -12 -12 -12 -12 -12 -12 -11 -11 -11 -11 -11 -11 -12 -11 -12 -12 -12 -11 -11 -10 -10 -10 -10 -10 -10 -10 -10 -10 -10 -10
-12 -12 -12 -11 -11 -11 -12 -12 -12 -12 -12 -12 -12 -12 -12 -12 -12 -12 -12 -12 -12 -11 -11 -11 -11 -11 -12 -12 -12 -11 -11 -11 -10 -10 -10 -10 -10 -10 -10 -10 -10 -10 -10
-12 -12 -12 -12 -12 -12 -12 -12 -12 -12 -12 -12 -12 -12 -12 -12 -12 -12 -12 -12 -12 -12 -12 -11 -11 -11 -12 -12 -12 -12 -11 -11 -11 -10 -10 -10 -10 -10 -10 -10 -9 -10 -10
-13 -13 -13 -13 -14 -14 -14 -14 -14 -13 -13 -13 -12 -13 -13 -13 -13 -12 -12 -12 -13 -12 -12 -12 -11 -11 -12 -12 -12 -12 -12 -11 -11 -11 -11 -10 -11 -10 -10 -10 -10 -10 -10
-14 -14 -14 -14 -15 -15 -15 -15 -16 -16 -16 -15 -14 -13 -13 -13 -13 -13 -13 -12 -12 -13 -13 -12 -12 -12 -11 -12 -12 -12 -12 -12 -11 -11 -11 -11 -10 -10 -10 -10 -10 -10 -10
-13 -14 -14 -14 -14 -15 -16 -16 -16 -16 -16 -16 -16 -15 -15 -14 -13 -13 -14 -13 -12 -13 -13 -13 -12 -12 -12 -12 -12 -12 -12 -12 -12 -12 -11 -11 -11 -11 -11 -10 -10 -10 -10
-13 -13 -14 -14 -15 -15 -15 -16 -16 -16 -16 -16 -16 -16 -16 -15 -14 -14 -14 -14 -13 -13 -13 -13 -13 -13 -12 -12 -12 -12 -12 -12 -12 -11 -12 -11 -11 -11 -11 -11 -11 -10 -11
-14 -14 -15 -15 -15 -16 -16 -16 -16 -16 -16 -17 -17 -17 -17 -16 -16 -15 -14 -14 -14 -14 -14 -13 -13 -13 -13 -13 -12 -12 -12 -12 -12 -12 -12 -12 -12 -12 -11 -11 -11 -11 -10
-15 -16 -16 -16 -17 -17 -17 -17 -17 -17 -18 -18 -18 -17 -17 -17 -17 -16 -15 -14 -14 -15 -15 -14 -14 -14 -13 -13 -13 -13 -13 -13 -13 -14 -13 -12 -12 -13 -12 -12 -11 -11 -11
-16 -16 -17 -17 -17 -17 -18 -18 -19 -19 -20 -20 -20 -19 -18 -18 -17 -17 -17 -16 -15 -15 -15 -15 -14 -14 -14 -13 -13 -13 -13 -13 -12 -12 -13 -12 -13 -12 -13 -13 -12 -12 -12
-17 -18 -18 -18 -19 -20 -21 -23 -24 -26 -26 -27 -26 -25 -23 -21 -19 -18 -18 -17 -16 -15 -16 -16 -15 -15 -15 -14 -14 -14 -14 -13 -13 -13 -12 -12 -13 -12 -12 -13 -12 -12 -12
-18 -19 -19 -21 -23 -25 -27 -27 -28 -27 -28 -28 -28 -28 -27 -26 -24 -21 -19 -18 -17 -16 -16 -16 -16 -15 -15 -15 -14 -14 -14 -14 -14 -13 -13 -13 -12 -13 -12 -13 -12 -12 -12
-19 -20 -22 -25 -27 -28 -28 -28 -28 -28 -28 -28 -29 -29 -29 -28 -28 -26 -22 -20 -18 -17 -17 -17 -16 -16 -15 -15 -15 -14 -14 -14 -14 -13 -12 -13 -13 -13 -13 -13 -13 -13 -13
-21 -24 -26 -28 -29 -29 -28 -28 -28 -28 -28 -28 -28 -29 -29 -29 -29 -28 -27 -24 -20 -19 -18 -17 -17 -17 -16 -16 -15 -15 -14 -15 -15 -14 -14 -14 -13 -13 -13 -13 -13 -13 -13
Height
5828 5828 5829 5828 5827 5826 5822 5824 5826 5826 5827 5828 5830 5832 5833 5833 5834 5833 5835 5835 5837 5837 5839 5839 5841 5842 5844 5845 5845 5846 5847 5848 5848 5849 5850 5849 5849 5850 5851 5852 5853 5854 5855
5828 5827 5826 5825 5826 5825 5823 5820 5821 5823 5824 5827 5828 5827 5830 5832 5831 5831 5833 5832 5834 5836 5837 5837 5838 5838 5840 5841 5842 5844 5845 5846 5847 5848 5849 5849 5849 5849 5850 5851 5853 5854 5856
5824 5823 5822 5821 5822 5822 5821 5819 5818 5820 5821 5822 5824 5824 5825 5826 5828 5829 5828 5829 5829 5832 5833 5835 5836 5836 5837 5838 5839 5840 5843 5844 5846 5847 5848 5848 5848 5849 5850 5851 5852 5854 5856
5819 5819 5819 5818 5818 5818 5817 5817 5818 5817 5818 5818 5819 5819 5821 5823 5823 5824 5826 5827 5826 5827 5829 5831 5833 5833 5834 5835 5836 5837 5840 5841 5843 5845 5846 5847 5847 5848 5849 5850 5851 5853 5855
5816 5815 5814 5815 5814 5814 5814 5814 5814 5814 5815 5815 5816 5816 5816 5818 5818 5819 5820 5821 5823 5824 5826 5828 5829 5830 5831 5832 5833 5834 5836 5837 5839 5842 5844 5845 5846 5847 5848 5849 5850 5852 5854
5813 5812 5811 5810 5810 5810 5810 5811 5810 5812 5811 5811 5812 5812 5812 5814 5814 5814 5814 5815 5817 5819 5821 5823 5825 5827 5827 5828 5829 5830 5832 5834 5836 5838 5840 5842 5844 5845 5845 5848 5849 5851 5852
5809 5808 5807 5806 5805 5805 5805 5805 5806 5806 5806 5807 5807 5807 5807 5807 5807 5808 5809 5811 5812 5813 5814 5817 5819 5820 5822 5823 5825 5826 5829 5830 5832 5834 5836 5838 5840 5843 5844 5845 5847 5849 5851
5803 5802 5802 5801 5800 5800 5799 5800 5800 5801 5801 5800 5801 5801 5802 5802 5803 5803 5803 5805 5807 5810 5810 5810 5812 5814 5817 5819 5820 5822 5824 5826 5827 5829 5831 5834 5836 5839 5841 5843 5844 5846 5849
5797 5796 5795 5795 5794 5793 5792 5792 5793 5793 5794 5794 5794 5794 5795 5795 5796 5797 5797 5797 5799 5801 5803 5804 5805 5806 5809 5812 5815 5817 5819 5821 5822 5824 5826 5828 5831 5835 5837 5839 5841 5843 5846
5790 5789 5787 5786 5785 5784 5783 5783 5782 5784 5785 5785 5786 5786 5786 5787 5788 5789 5790 5791 5792 5793 5795 5796 5798 5799 5801 5805 5808 5810 5813 5816 5818 5819 5821 5824 5827 5830 5833 5835 5838 5840 5843
5780 5779 5778 5777 5776 5775 5774 5773 5772 5772 5773 5775 5776 5777 5777 5778 5779 5780 5780 5782 5785 5786 5787 5789 5791 5792 5793 5796 5800 5804 5807 5811 5813 5814 5816 5820 5823 5825 5827 5830 5833 5835 5838
5770 5769 5768 5767 5766 5765 5763 5762 5761 5760 5760 5761 5762 5764 5766 5767 5769 5769 5771 5773 5774 5778 5779 5781 5783 5785 5786 5788 5791 5795 5801 5804 5807 5808 5810 5815 5818 5820 5823 5825 5828 5830 5833
5760 5758 5756 5755 5754 5754 5753 5751 5750 5749 5749 5749 5750 5751 5751 5753 5756 5758 5759 5762 5764 5766 5770 5772 5774 5776 5778 5780 5783 5787 5791 5795 5799 5801 5803 5807 5811 5814 5816 5819 5822 5825 5828
5748 5746 5744 5742 5740 5738 5737 5736 5735 5735 5734 5733 5734 5735 5736 5737 5740 5743 5746 5749 5752 5755 5759 5762 5764 5766 5769 5772 5773 5777 5781 5785 5789 5793 5796 5799 5802 5806 5809 5812 5816 5819 5822
5738 5735 5731 5729 5726 5724 5721 5720 5718 5716 5715 5715 5715 5716 5718 5720 5723 5726 5730 5734 5737 5742 5746 5749 5753 5755 5758 5761 5763 5767 5771 5774 5778 5783 5788 5791 5794 5797 5801 5804 5808 5812 5815
5723 5720 5716 5712 5710 5707 5704 5702 5701 5700 5699 5697 5696 5697 5699 5702 5705 5708 5712 5717 5722 5725 5730 5736 5740 5744 5747 5750 5753 5755 5759 5763 5766 5772 5778 5782 5785 5789 5792 5797 5800 5805 5809
5705 5701 5697 5692 5689 5686 5685 5683 5681 5680 5680 5678 5677 5677 5678 5680 5685 5689 5693 5698 5703 5708 5714 5719 5725 5730 5734 5737 5742 5743 5746 5750 5755 5759 5767 5771 5776 5779 5785 5788 5793 5797 5802
5687 5681 5677 5672 5667 5662 5658 5657 5656 5655 5654 5654 5655 5655 5657 5658 5662 5667 5673 5678 5684 5689 5695 5702 5708 5715 5720 5723 5728 5732 5735 5738 5741 5746 5753 5759 5763 5768 5774 5778 5785 5789 5787
5672 5665 5658 5652 5646 5641 5636 5631 5626 5622 5623 5625 5626 5628 5630 5634 5637 5643 5648 5656 5663 5669 5674 5681 5689 5696 5704 5708 5713 5718 5722 5724 5726 5732 5739 5746 5751 5756 5763 5768 5774 5780 5775
5652 5644 5636 5629 5620 5613 5606 5601 5596 5592 5590 5587 5590 5595 5599 5604 5609 5615 5622 5631 5639 5647 5653 5660 5668 5677 5684 5690 5697 5703 5707 5710 5712 5719 5724 5730 5737 5742 5748 5756 5762 5768 5770
5631 5623 5614 5606 5596 5584 5575 5565 5559 5555 5551 5552 5552 5555 5562 5569 5577 5585 5594 5604 5613 5622 5629 5638 5647 5657 5664 5672 5680 5686 5692 5697 5701 5706 5710 5717 5722 5728 5733 5742 5749 5756 5763
5609 5599 5589 5577 5565 5554 5544 5535 5525 5518 5513 5510 5511 5515 5522 5532 5542 5552 5562 5574 5585 5595 5605 5614 5625 5635 5643 5652 5659 5670 5674 5684 5688 5695 5697 5704 5711 5715 5721 5729 5737 5744 5752
5585 5574 5562 5549 5536 5522 5510 5501 5494 5489 5485 5482 5481 5480 5482 5490 5502 5515 5528 5542 5555 5566 5578 5590 5601 5611 5621 5629 5640 5649 5657 5666 5678 5683 5680 5689 5697 5703 5710 5718 5726 5732 5741
5561 5547 5532 5518 5504 5492 5485 5481 5477 5473 5470 5466 5464 5462 5461 5460 5466 5476 5491 5507 5522 5536 5548 5562 5574 5586 5598 5608 5617 5626 5641 5651 5662 5670 5673 5679 5684 5690 5697 5705 5713 5722 5728
5533 5520 5505 5491 5481 5475 5471 5466 5463 5460 5456 5453 5449 5447 5445 5444 5444 5447 5456 5471 5488 5504 5518 5532 5547 5561 5573 5585 5596 5607 5620 5634 5645 5655 5656 5663 5670 5678 5685 5693 5699 5707 5714
5508 5493 5480 5473 5467 5462 5457 5453 5449 5445 5442 5439 5435 5433 5431 5430 5429 5428 5431 5439 5454 5471 5487 5503 5519 5535 5548 5561 5574 5585 5598 5613 5626 5635 5638 5648 5657 5665 5671 5678 5687 5694 5701
Wind_Speed
19 24 24 24 27 25 29 26 20 15 18 19 18 18 17 16 17 17 18 17 16 16 16 16 17 16 17 15 13 13 13 11 9 9 10 8 6 6 7 10 13 19 23
20 22 23 26 25 24 26 27 23 23 19 19 25 21 18 19 19 19 19 18 19 18 18 18 18 17 18 17 15 14 14 13 12 12 11 9 8 8 8 12 15 20 22
19 20 23 23 22 22 22 25 25 21 20 24 23 22 24 21 21 21 22 21 21 20 20 20 20 19 20 20 18 16 16 15 13 13 14 11 10 10 10 12 16 21 22
20 23 21 24 24 21 22 24 26 25 21 20 23 23 17 24 26 23 23 24 23 22 22 23 22 21 21 22 20 19 17 18 16 16 17 15 13 12 12 15 18 21 22
19 21 21 23 23 24 24 26 24 26 24 23 24 23 20 22 26 30 27 25 26 26 26 25 25 24 23 24 23 21 19 20 18 18 18 18 15 14 14 17 20 22 23
19 21 22 23 24 25 26 27 29 27 27 24 27 28 25 24 25 25 27 29 28 29 30 30 28 27 26 26 25 23 20 21 21 19 20 19 17 17 16 18 22 24 24
26 26 27 29 28 27 28 28 29 30 31 31 31 28 30 29 28 28 25 28 30 32 32 32 31 30 29 28 27 26 22 20 23 21 22 21 20 18 17 18 23 24 25
30 31 31 33 35 35 34 34 33 32 33 32 33 34 36 35 33 31 33 27 31 33 32 34 34 31 31 29 28 29 26 22 25 24 25 24 23 20 18 19 23 26 26
34 35 35 35 37 38 38 39 38 38 38 38 37 36 36 39 39 38 38 35 33 34 35 34 33 34 32 30 29 29 29 26 25 27 29 27 26 23 20 20 22 25 28
38 39 39 40 40 40 41 42 43 43 43 43 43 43 42 41 40 41 41 39 38 39 37 36 32 35 33 33 32 31 30 28 28 29 30 31 29 26 23 21 22 24 28
42 43 43 44 46 47 48 49 48 49 48 47 47 48 48 47 47 45 43 41 41 41 42 43 39 34 36 35 34 34 31 29 30 29 31 34 33 30 28 25 24 24 27
42 42 42 44 45 47 49 51 53 54 54 54 54 52 52 53 51 50 49 47 44 43 45 46 46 44 37 37 36 37 36 35 32 32 33 36 36 33 31 28 27 27 26
47 49 50 50 50 50 51 53 55 56 57 59 60 60 58 57 56 56 54 54 51 48 46 48 48 48 47 42 41 40 40 41 38 34 36 37 39 38 35 31 30 29 29
50 52 54 57 59 60 61 60 61 62 62 63 63 62 62 62 61 60 60 59 56 55 52 50 50 51 51 49 46 44 44 44 42 40 38 39 41 42 40 36 33 32 31
55 56 58 60 62 63 64 66 68 68 68 68 69 68 66 65 66 66 65 63 62 60 59 55 54 51 53 53 51 50 47 47 46 43 43 41 42 44 44 42 37 35 34
57 59 61 63 65 65 66 68 69 71 72 73 74 76 75 71 69 69 69 70 67 66 63 61 58 57 54 54 52 51 50 50 48 47 46 47 44 44 46 46 44 39 35
62 65 67 68 69 69 70 71 70 70 71 74 77 78 79 79 76 72 72 73 73 71 68 66 64 62 59 56 53 54 53 52 52 51 50 50 50 46 47 46 47 44 39
75 75 76 77 79 80 81 81 80 81 81 78 78 80 83 83 81 81 76 76 76 75 74 71 69 67 64 63 61 56 53 51 58 57 54 54 53 53 48 48 48 44 47
79 82 84 86 86 87 89 90 92 93 91 90 89 87 86 86 88 86 85 82 80 79 77 76 74 72 70 68 65 65 60 56 60 63 57 57 57 56 53 49 49 48 50
82 85 87 90 93 96 97 98 99 99 99 100 97 96 94 93 91 91 92 91 86 84 82 80 77 76 75 74 71 69 66 67 46 54 59 60 61 60 57 55 52 53 54
85 87 91 94 96 99 102 104 105 107 107 106 106 106 102 100 98 95 95 98 95 89 86 84 81 79 79 78 76 75 71 66 69 60 54 57 64 62 58 57 57 55 54
88 91 95 96 100 104 107 108 108 105 103 103 103 104 105 104 103 101 100 100 102 97 92 89 87 83 82 81 82 77 77 67 61 42 47 57 53 62 66 57 59 57 53
90 93 95 100 103 98 95 89 80 73 68 66 68 73 83 97 102 103 102 103 104 103 97 94 90 88 85 84 84 83 81 75 66 52 45 46 50 56 62 66 62 58 57
93 95 100 97 88 77 61 52 49 48 49 52 54 56 58 66 82 96 101 102 106 106 103 98 95 92 90 88 87 88 83 77 69 62 55 52 64 63 59 63 64 63 61
96 97 90 81 63 50 49 49 46 45 46 46 47 50 52 53 58 72 90 100 104 107 108 104 98 96 94 91 91 90 87 81 75 61 57 67 56 59 51 62 66 70 71
94 83 75 56 47 49 48 49 50 51 51 50 49 48 48 49 52 56 65 85 100 104 108 109 102 99 97 94 93 93 92 85 80 82 61 50 38 45 50 49 54 60 61
Wind_Direction
301 290 292 285 285 284 293 294 288 260 250 257 260 263 259 251 249 244 246 249 247 247 251 253 252 251 253 252 242 237 240 248 255 241 233 232 229 211 195 191 188 174 170
271 274 272 280 281 284 287 291 289 291 273 274 257 254 257 257 252 250 247 245 249 247 246 250 249 250 247 249 246 236 233 237 253 256 245 243 221 215 209 192 188 183 178
263 264 262 262 268 269 280 285 288 292 291 282 268 268 255 249 253 254 249 246 244 247 248 251 250 247 246 244 244 242 233 237 248 252 248 243 236 222 215 201 192 188 182
263 264 267 260 261 265 265 265 277 279 281 287 276 266 276 264 250 248 252 253 251 247 246 248 250 249 245 243 239 240 239 237 241 249 244 241 237 230 216 204 198 193 191
262 264 268 271 272 272 268 268 267 271 271 272 277 279 278 279 260 252 245 249 253 252 250 248 247 247 247 243 240 241 240 238 237 241 235 237 237 230 222 211 203 198 198
266 270 270 271 273 272 273 272 269 267 267 266 267 270 266 266 272 261 261 254 249 250 248 246 245 246 246 244 246 245 244 238 237 234 227 229 232 231 223 213 210 205 202
281 276 277 276 274 273 272 270 270 272 268 264 261 261 266 265 261 263 257 260 256 257 255 248 244 245 245 243 242 245 244 240 234 234 225 221 227 230 226 215 216 211 209
281 279 275 275 276 275 273 270 269 267 269 269 265 261 259 256 257 258 259 255 252 256 260 257 242 245 246 247 242 244 245 240 232 232 225 220 223 227 226 223 220 214 215
279 278 277 274 273 274 273 273 271 270 269 267 266 264 262 261 258 254 255 256 252 251 251 260 253 239 245 249 247 245 245 242 236 231 226 220 222 224 225 225 225 221 219
279 277 277 277 276 275 275 274 273 271 269 267 267 266 264 263 261 259 255 254 254 250 250 250 260 249 241 246 251 246 245 244 240 233 228 226 221 223 226 226 228 225 223
276 276 274 274 274 274 274 273 272 272 271 268 266 265 264 263 262 261 259 256 252 249 250 252 250 255 245 241 248 251 246 244 241 239 232 228 226 225 224 223 228 228 226
275 274 272 272 271 272 272 272 272 271 270 269 267 264 263 264 261 260 259 257 253 251 249 248 249 248 248 247 243 248 247 243 239 236 235 230 227 229 229 224 226 229 228
279 277 276 276 274 273 272 272 272 271 270 269 267 266 263 260 261 261 257 257 255 252 249 249 247 246 245 244 245 243 244 243 240 236 234 231 228 228 229 226 227 229 230
278 278 278 277 277 278 277 275 272 271 270 269 266 264 263 262 259 257 257 256 253 253 250 248 248 246 245 242 242 243 244 243 240 237 236 232 228 228 229 230 225 229 231
280 280 279 278 278 278 277 275 274 273 271 270 268 264 261 259 260 259 257 254 253 250 251 248 247 247 246 244 242 242 242 245 244 239 236 236 231 228 229 229 229 226 230
284 284 283 281 280 278 277 275 273 269 266 265 266 265 262 259 255 255 256 256 253 250 247 247 245 245 246 245 242 242 241 242 242 241 238 237 235 232 230 230 230 228 227
291 289 288 288 287 285 282 279 275 270 264 260 257 256 259 259 256 252 252 252 252 251 247 244 244 243 243 244 242 239 240 236 243 240 237 237 236 233 232 232 234 231 228
293 292 291 289 289 289 289 286 283 279 275 269 263 255 253 253 253 253 249 248 249 249 248 245 242 242 241 241 237 239 242 239 238 239 240 234 235 233 232 230 234 235 241
290 290 289 288 287 287 287 285 284 283 278 273 269 263 259 253 250 249 250 247 244 244 245 244 242 240 240 240 239 239 237 238 244 237 236 234 232 233 231 230 230 232 227
288 289 290 290 291 290 289 286 283 279 276 274 270 265 261 256 251 247 245 247 245 242 241 241 241 240 238 239 239 240 236 243 244 236 237 234 230 229 229 229 230 230 234
293 293 294 295 293 291 289 288 285 282 279 275 271 267 262 257 253 247 245 243 245 242 240 239 238 237 238 237 238 238 239 246 250 259 262 238 232 223 226 228 229 230 232
299 298 298 297 295 293 290 288 286 283 279 276 272 266 262 257 253 248 243 241 242 243 239 238 237 235 235 236 237 237 238 235 241 247 245 245 240 229 222 227 230 230 231
302 301 300 298 296 295 289 286 284 281 278 275 271 267 261 256 250 247 244 239 238 240 240 237 236 235 233 234 236 237 236 237 236 235 238 235 247 238 237 224 230 232 233
304 304 302 302 296 292 288 286 286 286 282 278 274 270 265 259 251 246 241 239 236 236 238 237 235 234 233 232 233 236 236 236 232 237 243 233 245 247 230 227 224 229 231
306 306 304 297 294 288 289 289 288 287 285 283 278 271 268 265 259 249 241 236 235 234 235 236 234 233 233 232 230 233 235 233 231 226 238 230 246 242 236 244 227 227 229
309 306 299 296 289 292 292 292 293 291 288 283 279 274 269 264 261 259 249 240 234 231 231 234 232 231 231 231 231 230 232 231 230 226 229 228 228 237 245 231 234 234 232